Location: Eurasberg
(48.3353°N, 11.0839°E)
Time: 13:20:31
(UTC+00:00)

Timation 1 Rocket - Pass Details

Date: 21 April 2026
Orbit: 895 x 908 km, 70.0° (Epoch: 14 May)

Event Time Altitude Azimuth Distance (km) Brightness Sun altitude
Rises 03:03:56 0° 290° (WNW) 3,540 7.1 -11.4°
Reaches altitude 10° 03:08:48 10° 325° (NW) 2,602 6.7 -10.7°
Maximum altitude 03:10:27 11° 341° (NNW) 2,525 6.8 -10.5°
Drops below altitude 10° 03:12:07 10° 357° (N) 2,604 7.1 -10.2°
Sets 03:17:00 0° 32° (NNE) 3,547 8.7 -9.5°
